Year,Month,Day,Hour,Minute,Value (Times are PST for temperature in C)
2016,04,09,00,00,9.90
2016,04,09,00,01,9.90
2016,04,09,00,02,9.80
2016,04,09,00,03,9.80
2016,04,09,00,04,9.80
2016,04,09,00,05,9.80
2016,04,09,00,06,9.80
2016,04,09,00,07,9.80
2016,04,09,00,08,9.70
2016,04,09,00,09,9.70
2016,04,09,00,10,9.70
2016,04,09,00,11,9.70
2016,04,09,00,12,9.70
2016,04,09,00,13,9.70
2016,04,09,00,14,9.70
2016,04,09,00,15,9.70
2016,04,09,00,16,9.70
2016,04,09,00,17,9.60
2016,04,09,00,18,9.60
2016,04,09,00,19,9.60
2016,04,09,00,20,9.50
2016,04,09,00,21,9.50
2016,04,09,00,22,9.50
2016,04,09,00,23,9.40
2016,04,09,00,24,9.40
2016,04,09,00,25,9.40
2016,04,09,00,26,9.40
2016,04,09,00,27,9.40
2016,04,09,00,28,9.30
2016,04,09,00,29,9.30
2016,04,09,00,30,9.30
2016,04,09,00,31,9.30
2016,04,09,00,32,9.30
2016,04,09,00,33,9.30
2016,04,09,00,34,9.20
2016,04,09,00,35,9.20
2016,04,09,00,36,9.20
2016,04,09,00,37,9.20
2016,04,09,00,38,9.20
2016,04,09,00,39,9.20
2016,04,09,00,40,9.20
2016,04,09,00,41,9.20
2016,04,09,00,42,9.20
2016,04,09,00,43,9.20
2016,04,09,00,44,9.20
2016,04,09,00,45,9.10
2016,04,09,00,46,9.10
2016,04,09,00,47,9.10
2016,04,09,00,48,9.00
2016,04,09,00,49,9.00
2016,04,09,00,50,9.00
2016,04,09,00,51,9.00
2016,04,09,00,52,9.00
2016,04,09,00,53,9.00
2016,04,09,00,54,8.90
2016,04,09,00,55,8.90
2016,04,09,00,56,8.90
2016,04,09,00,57,8.90
2016,04,09,00,58,8.90
2016,04,09,00,59,8.90
2016,04,09,01,00,8.90
2016,04,09,01,01,8.90
2016,04,09,01,02,8.90
2016,04,09,01,03,8.90
2016,04,09,01,04,9.00
2016,04,09,01,05,9.00
2016,04,09,01,06,8.90
2016,04,09,01,07,8.90
2016,04,09,01,08,8.90
2016,04,09,01,09,8.90
2016,04,09,01,10,8.90
2016,04,09,01,11,8.90
2016,04,09,01,12,9.00
2016,04,09,01,13,9.00
2016,04,09,01,14,9.10
2016,04,09,01,15,9.20
2016,04,09,01,16,9.30
2016,04,09,01,17,9.40
2016,04,09,01,18,9.40
2016,04,09,01,19,9.50
2016,04,09,01,20,9.60
2016,04,09,01,21,9.70
2016,04,09,01,22,9.70
2016,04,09,01,23,9.70
2016,04,09,01,24,9.70
2016,04,09,01,25,9.70
2016,04,09,01,26,9.70
2016,04,09,01,27,9.70
2016,04,09,01,28,9.70
2016,04,09,01,29,9.70
2016,04,09,01,30,9.70
2016,04,09,01,31,9.70
2016,04,09,01,32,9.70
2016,04,09,01,33,9.70
2016,04,09,01,34,9.70
2016,04,09,01,35,9.70
2016,04,09,01,36,9.70
2016,04,09,01,37,9.70
2016,04,09,01,38,9.70
2016,04,09,01,39,9.70
2016,04,09,01,40,9.70
2016,04,09,01,41,9.70
2016,04,09,01,42,9.70
2016,04,09,01,43,9.70
2016,04,09,01,44,9.60
2016,04,09,01,45,9.60
2016,04,09,01,46,9.60
2016,04,09,01,47,9.60
2016,04,09,01,48,9.60
2016,04,09,01,49,9.60
2016,04,09,01,50,9.50
2016,04,09,01,51,9.50
2016,04,09,01,52,9.50
2016,04,09,01,53,9.50
2016,04,09,01,54,9.50
2016,04,09,01,55,9.40
2016,04,09,01,56,9.40
2016,04,09,01,57,9.40
2016,04,09,01,58,9.40
2016,04,09,01,59,9.40
2016,04,09,02,00,9.40
2016,04,09,02,01,9.40
2016,04,09,02,02,9.30
2016,04,09,02,03,9.30
2016,04,09,02,04,9.30
2016,04,09,02,05,9.30
2016,04,09,02,06,9.30
2016,04,09,02,07,9.30
2016,04,09,02,08,9.20
2016,04,09,02,09,9.20
2016,04,09,02,10,9.20
2016,04,09,02,11,9.20
2016,04,09,02,12,9.20
2016,04,09,02,13,9.20
2016,04,09,02,14,9.20
2016,04,09,02,15,9.20
2016,04,09,02,16,9.20
2016,04,09,02,17,9.10
2016,04,09,02,18,9.10
2016,04,09,02,19,9.10
2016,04,09,02,20,9.00
2016,04,09,02,21,9.00
2016,04,09,02,22,9.00
2016,04,09,02,23,9.00
2016,04,09,02,24,8.90
2016,04,09,02,25,8.90
2016,04,09,02,26,8.90
2016,04,09,02,27,8.90
2016,04,09,02,28,8.80
2016,04,09,02,29,8.80
2016,04,09,02,30,8.80
2016,04,09,02,31,8.70
2016,04,09,02,32,8.70
2016,04,09,02,33,8.70
2016,04,09,02,34,8.70
2016,04,09,02,35,8.70
2016,04,09,02,36,8.70
2016,04,09,02,37,8.70
2016,04,09,02,38,8.70
2016,04,09,02,39,8.70
2016,04,09,02,40,8.70
2016,04,09,02,41,8.70
2016,04,09,02,42,8.60
2016,04,09,02,43,8.60
2016,04,09,02,44,8.60
2016,04,09,02,45,8.60
2016,04,09,02,46,8.60
2016,04,09,02,47,8.60
2016,04,09,02,48,8.60
2016,04,09,02,49,8.60
2016,04,09,02,50,8.60
2016,04,09,02,51,8.60
2016,04,09,02,52,8.60
2016,04,09,02,53,8.60
2016,04,09,02,54,8.60
2016,04,09,02,55,8.60
2016,04,09,02,56,8.60
2016,04,09,02,57,8.60
2016,04,09,02,58,8.60
2016,04,09,02,59,8.60
2016,04,09,03,00,8.60
2016,04,09,03,01,8.60
2016,04,09,03,02,8.60
2016,04,09,03,03,8.60
2016,04,09,03,04,8.60
2016,04,09,03,05,8.60
2016,04,09,03,06,8.60
2016,04,09,03,07,8.60
2016,04,09,03,08,8.50
2016,04,09,03,09,8.50
2016,04,09,03,10,8.50
2016,04,09,03,11,8.50
2016,04,09,03,12,8.50
2016,04,09,03,13,8.50
2016,04,09,03,14,8.50
2016,04,09,03,15,8.50
2016,04,09,03,16,8.50
2016,04,09,03,17,8.50
2016,04,09,03,18,8.50
2016,04,09,03,19,8.50
2016,04,09,03,20,8.50
2016,04,09,03,21,8.50
2016,04,09,03,22,8.50
2016,04,09,03,23,8.40
2016,04,09,03,24,8.40
2016,04,09,03,25,8.40
2016,04,09,03,26,8.40
2016,04,09,03,27,8.40
2016,04,09,03,28,8.40
2016,04,09,03,29,8.40
2016,04,09,03,30,8.40
2016,04,09,03,31,8.50
2016,04,09,03,32,8.50
2016,04,09,03,33,8.50
2016,04,09,03,34,8.50
2016,04,09,03,35,8.40
2016,04,09,03,36,8.40
2016,04,09,03,37,8.40
2016,04,09,03,38,8.40
2016,04,09,03,39,8.30
2016,04,09,03,40,8.30
2016,04,09,03,41,8.30
2016,04,09,03,42,8.30
2016,04,09,03,43,8.30
2016,04,09,03,44,8.30
2016,04,09,03,45,8.30
2016,04,09,03,46,8.30
2016,04,09,03,47,8.20
2016,04,09,03,48,8.20
2016,04,09,03,49,8.20
2016,04,09,03,50,8.20
2016,04,09,03,51,8.20
2016,04,09,03,52,8.20
2016,04,09,03,53,8.10
2016,04,09,03,54,8.10
2016,04,09,03,55,8.10
2016,04,09,03,56,8.00
2016,04,09,03,57,8.00
2016,04,09,03,58,8.00
2016,04,09,03,59,7.90
2016,04,09,04,00,7.90
2016,04,09,04,01,7.90
2016,04,09,04,02,7.80
2016,04,09,04,03,7.80
2016,04,09,04,04,7.80
2016,04,09,04,05,7.80
2016,04,09,04,06,7.80
2016,04,09,04,07,7.80
2016,04,09,04,08,7.80
2016,04,09,04,09,7.80
2016,04,09,04,10,7.70
2016,04,09,04,11,7.70
2016,04,09,04,12,7.70
2016,04,09,04,13,7.70
2016,04,09,04,14,7.70
2016,04,09,04,15,7.70
2016,04,09,04,16,7.60
2016,04,09,04,17,7.60
2016,04,09,04,18,7.60
2016,04,09,04,19,7.60
2016,04,09,04,20,7.60
2016,04,09,04,21,7.60
2016,04,09,04,22,7.60
2016,04,09,04,23,7.60
2016,04,09,04,24,7.60
2016,04,09,04,25,7.60
2016,04,09,04,26,7.50
2016,04,09,04,27,7.50
2016,04,09,04,28,7.50
2016,04,09,04,29,7.50
2016,04,09,04,30,7.50
2016,04,09,04,31,7.40
2016,04,09,04,32,7.40
2016,04,09,04,33,7.40
2016,04,09,04,34,7.50
2016,04,09,04,35,7.50
2016,04,09,04,36,7.50
2016,04,09,04,37,7.50
2016,04,09,04,38,7.60
2016,04,09,04,39,7.60
2016,04,09,04,40,7.60
2016,04,09,04,41,7.60
2016,04,09,04,42,7.60
2016,04,09,04,43,7.60
2016,04,09,04,44,7.50
2016,04,09,04,45,7.50
2016,04,09,04,46,7.50
2016,04,09,04,47,7.50
2016,04,09,04,48,7.60
2016,04,09,04,49,7.60
2016,04,09,04,50,7.60
2016,04,09,04,51,7.60
2016,04,09,04,52,7.60
2016,04,09,04,53,7.70
2016,04,09,04,54,7.70
2016,04,09,04,55,7.60
2016,04,09,04,56,7.60
2016,04,09,04,57,7.60
2016,04,09,04,58,7.50
2016,04,09,04,59,7.50
2016,04,09,05,00,7.50
2016,04,09,05,01,7.40
2016,04,09,05,02,7.40
2016,04,09,05,03,7.40
2016,04,09,05,04,7.30
2016,04,09,05,05,7.30
2016,04,09,05,06,7.30
2016,04,09,05,07,7.30
2016,04,09,05,08,7.20
2016,04,09,05,09,7.20
2016,04,09,05,10,7.20
2016,04,09,05,11,7.10
2016,04,09,05,12,7.10
2016,04,09,05,13,7.10
2016,04,09,05,14,7.00
2016,04,09,05,15,7.00
2016,04,09,05,16,7.00
2016,04,09,05,17,6.90
2016,04,09,05,18,6.90
2016,04,09,05,19,6.80
2016,04,09,05,20,6.80
2016,04,09,05,21,6.80
2016,04,09,05,22,6.80
2016,04,09,05,23,6.80
2016,04,09,05,24,6.70
2016,04,09,05,25,6.70
2016,04,09,05,26,6.70
2016,04,09,05,27,6.60
2016,04,09,05,28,6.60
2016,04,09,05,29,6.60
2016,04,09,05,30,6.60
2016,04,09,05,31,6.60
2016,04,09,05,32,6.60
2016,04,09,05,33,6.50
2016,04,09,05,34,6.40
2016,04,09,05,35,6.40
2016,04,09,05,36,6.40
2016,04,09,05,37,6.40
2016,04,09,05,38,6.40
2016,04,09,05,39,6.40
2016,04,09,05,40,6.40
2016,04,09,05,41,6.40
2016,04,09,05,42,6.40
2016,04,09,05,43,6.40
2016,04,09,05,44,6.40
2016,04,09,05,45,6.40
2016,04,09,05,46,6.40
2016,04,09,05,47,6.30
2016,04,09,05,48,6.30
2016,04,09,05,49,6.20
2016,04,09,05,50,6.20
2016,04,09,05,51,6.10
2016,04,09,05,52,6.10
2016,04,09,05,53,6.00
2016,04,09,05,54,6.00
2016,04,09,05,55,6.00
2016,04,09,05,56,6.00
2016,04,09,05,57,6.10
2016,04,09,05,58,6.10
2016,04,09,05,59,6.20
2016,04,09,06,00,6.20
2016,04,09,06,01,6.20
2016,04,09,06,02,6.20
2016,04,09,06,03,6.20
2016,04,09,06,04,6.20
2016,04,09,06,05,6.20
2016,04,09,06,06,6.30
2016,04,09,06,07,6.30
2016,04,09,06,08,6.40
2016,04,09,06,09,6.40
2016,04,09,06,10,6.40
2016,04,09,06,11,6.40
2016,04,09,06,12,6.40
2016,04,09,06,13,6.40
2016,04,09,06,14,6.40
2016,04,09,06,15,6.40
2016,04,09,06,16,6.40
2016,04,09,06,17,6.50
2016,04,09,06,18,6.60
2016,04,09,06,19,6.60
2016,04,09,06,20,6.60
2016,04,09,06,21,6.60
2016,04,09,06,22,6.60
2016,04,09,06,23,6.60
2016,04,09,06,24,6.60
2016,04,09,06,25,6.60
2016,04,09,06,26,6.60
2016,04,09,06,27,6.60
2016,04,09,06,28,6.60
2016,04,09,06,29,6.60
2016,04,09,06,30,6.60
2016,04,09,06,31,6.60
2016,04,09,06,32,6.60
2016,04,09,06,33,6.60
2016,04,09,06,34,6.60
2016,04,09,06,35,6.60
2016,04,09,06,36,6.60
2016,04,09,06,37,6.60
2016,04,09,06,38,6.60
2016,04,09,06,39,6.60
2016,04,09,06,40,6.60
2016,04,09,06,41,6.60
2016,04,09,06,42,6.60
2016,04,09,06,43,6.60
2016,04,09,06,44,6.60
2016,04,09,06,45,6.60
2016,04,09,06,46,6.60
2016,04,09,06,47,6.60
2016,04,09,06,48,6.70
2016,04,09,06,49,6.70
2016,04,09,06,50,6.70
2016,04,09,06,51,6.70
2016,04,09,06,52,6.70
2016,04,09,06,53,6.70
2016,04,09,06,54,6.70
2016,04,09,06,55,6.70
2016,04,09,06,56,6.70
2016,04,09,06,57,6.70
2016,04,09,06,58,6.70
2016,04,09,06,59,6.70
2016,04,09,07,00,6.70
2016,04,09,07,01,6.70
2016,04,09,07,02,6.70
2016,04,09,07,03,6.70
2016,04,09,07,04,6.70
2016,04,09,07,05,6.70
2016,04,09,07,06,6.70
2016,04,09,07,07,6.70
2016,04,09,07,08,6.70
2016,04,09,07,09,6.70
2016,04,09,07,10,6.70
2016,04,09,07,11,6.70
2016,04,09,07,12,6.70
2016,04,09,07,13,6.70
2016,04,09,07,14,6.70
2016,04,09,07,15,6.70
2016,04,09,07,16,6.70
2016,04,09,07,17,6.80
2016,04,09,07,18,6.80
2016,04,09,07,19,6.80
2016,04,09,07,20,6.80
2016,04,09,07,21,6.80
2016,04,09,07,22,6.80
2016,04,09,07,23,6.80
2016,04,09,07,24,6.80
2016,04,09,07,25,6.80
2016,04,09,07,26,6.80
2016,04,09,07,27,6.90
2016,04,09,07,28,6.90
2016,04,09,07,29,7.00
2016,04,09,07,30,7.10
2016,04,09,07,31,7.10
2016,04,09,07,32,7.20
2016,04,09,07,33,7.20
2016,04,09,07,34,7.20
2016,04,09,07,35,7.20
2016,04,09,07,36,7.20
2016,04,09,07,37,7.20
2016,04,09,07,38,7.20
2016,04,09,07,39,7.20
2016,04,09,07,40,7.20
2016,04,09,07,41,7.30
2016,04,09,07,42,7.30
2016,04,09,07,43,7.30
2016,04,09,07,44,7.50
2016,04,09,07,45,7.60
2016,04,09,07,46,7.60
2016,04,09,07,47,7.60
2016,04,09,07,48,7.60
2016,04,09,07,49,7.60
2016,04,09,07,50,7.60
2016,04,09,07,51,7.60
2016,04,09,07,52,7.70
2016,04,09,07,53,7.70
2016,04,09,07,54,7.80
2016,04,09,07,55,7.80
2016,04,09,07,56,7.80
2016,04,09,07,57,7.80
2016,04,09,07,58,7.80
2016,04,09,07,59,7.90
2016,04,09,08,00,7.90
2016,04,09,08,01,8.00
2016,04,09,08,02,8.10
2016,04,09,08,03,8.20
2016,04,09,08,04,8.20
2016,04,09,08,05,8.30
2016,04,09,08,06,8.50
2016,04,09,08,07,8.60
2016,04,09,08,08,8.80
2016,04,09,08,09,8.90
2016,04,09,08,10,9.00
2016,04,09,08,11,9.10
2016,04,09,08,12,9.10
2016,04,09,08,13,9.20
2016,04,09,08,14,9.20
2016,04,09,08,15,9.10
2016,04,09,08,16,9.10
2016,04,09,08,17,9.00
2016,04,09,08,18,9.00
2016,04,09,08,19,9.00
2016,04,09,08,20,9.00
2016,04,09,08,21,9.00
2016,04,09,08,22,8.90
2016,04,09,08,23,8.90
2016,04,09,08,24,8.90
2016,04,09,08,25,8.80
2016,04,09,08,26,8.80
2016,04,09,08,27,8.80
2016,04,09,08,28,8.80
2016,04,09,08,29,8.90
2016,04,09,08,30,8.90
2016,04,09,08,31,8.90
2016,04,09,08,32,8.90
2016,04,09,08,33,9.00
2016,04,09,08,34,9.00
2016,04,09,08,35,8.90
2016,04,09,08,36,9.00
2016,04,09,08,37,9.00
2016,04,09,08,38,9.00
2016,04,09,08,39,9.00
2016,04,09,08,40,9.00
2016,04,09,08,41,9.00
2016,04,09,08,42,9.00
2016,04,09,08,43,9.00
2016,04,09,08,44,9.10
2016,04,09,08,45,9.10
2016,04,09,08,46,9.10
2016,04,09,08,47,9.20
2016,04,09,08,48,9.20
2016,04,09,08,49,9.20
2016,04,09,08,50,9.20
2016,04,09,08,51,9.20
2016,04,09,08,52,9.20
2016,04,09,08,53,9.20
2016,04,09,08,54,9.30
2016,04,09,08,55,9.30
2016,04,09,08,56,9.30
2016,04,09,08,57,9.30
2016,04,09,08,58,9.40
2016,04,09,08,59,9.50
2016,04,09,09,00,9.50
2016,04,09,09,01,9.60
2016,04,09,09,02,9.60
2016,04,09,09,03,9.70
2016,04,09,09,04,9.70
2016,04,09,09,05,9.70
2016,04,09,09,06,9.80
2016,04,09,09,07,9.90
2016,04,09,09,08,9.90
2016,04,09,09,09,9.90
2016,04,09,09,10,10.00
2016,04,09,09,11,10.10
2016,04,09,09,12,10.10
2016,04,09,09,13,10.10
2016,04,09,09,14,10.20
2016,04,09,09,15,10.20
2016,04,09,09,16,10.20
2016,04,09,09,17,10.20
2016,04,09,09,18,10.30
2016,04,09,09,19,10.30
2016,04,09,09,20,10.30
2016,04,09,09,21,10.30
2016,04,09,09,22,10.30
2016,04,09,09,23,10.30
2016,04,09,09,24,10.30
2016,04,09,09,25,10.40
2016,04,09,09,26,10.40
2016,04,09,09,27,10.40
2016,04,09,09,28,10.40
2016,04,09,09,29,10.40
2016,04,09,09,30,10.40
2016,04,09,09,31,10.50
2016,04,09,09,32,10.60
2016,04,09,09,33,10.60
2016,04,09,09,34,10.70
2016,04,09,09,35,10.70
2016,04,09,09,36,10.70
2016,04,09,09,37,10.80
2016,04,09,09,38,10.90
2016,04,09,09,39,10.90
2016,04,09,09,40,11.00
2016,04,09,09,41,11.10
2016,04,09,09,42,11.20
2016,04,09,09,43,11.20
2016,04,09,09,44,11.20
2016,04,09,09,45,11.20
2016,04,09,09,46,11.20
2016,04,09,09,47,11.30
2016,04,09,09,48,11.20
2016,04,09,09,49,11.20
2016,04,09,09,50,11.20
2016,04,09,09,51,11.20
2016,04,09,09,52,11.20
2016,04,09,09,53,11.20
2016,04,09,09,54,11.30
2016,04,09,09,55,11.30
2016,04,09,09,56,11.30
2016,04,09,09,57,11.30
2016,04,09,09,58,11.30
2016,04,09,09,59,11.30
2016,04,09,10,00,11.20
2016,04,09,10,01,11.20
2016,04,09,10,02,11.20
2016,04,09,10,03,11.20
2016,04,09,10,04,11.20
2016,04,09,10,05,11.10
2016,04,09,10,06,11.20
2016,04,09,10,07,11.20
2016,04,09,10,08,11.10
2016,04,09,10,09,11.10
2016,04,09,10,10,11.10
2016,04,09,10,11,11.10
2016,04,09,10,12,11.10
2016,04,09,10,13,11.10
2016,04,09,10,14,11.10
2016,04,09,10,15,11.10
2016,04,09,10,16,11.10
2016,04,09,10,17,11.10
2016,04,09,10,18,11.20
2016,04,09,10,19,11.20
2016,04,09,10,20,11.30
2016,04,09,10,21,11.40
2016,04,09,10,22,11.40
2016,04,09,10,23,11.40
2016,04,09,10,24,11.50
2016,04,09,10,25,11.60
2016,04,09,10,26,11.60
2016,04,09,10,27,11.60
2016,04,09,10,28,11.60
2016,04,09,10,29,11.60
2016,04,09,10,30,11.70
2016,04,09,10,31,11.70
2016,04,09,10,32,11.60
2016,04,09,10,33,11.60
2016,04,09,10,34,11.70
2016,04,09,10,35,11.70
2016,04,09,10,36,11.70
2016,04,09,10,37,11.80
2016,04,09,10,38,11.80
2016,04,09,10,39,11.80
2016,04,09,10,40,11.70
2016,04,09,10,41,11.70
2016,04,09,10,42,11.70
2016,04,09,10,43,11.60
2016,04,09,10,44,11.70
2016,04,09,10,45,11.80
2016,04,09,10,46,11.90
2016,04,09,10,47,12.10
2016,04,09,10,48,12.20
2016,04,09,10,49,12.30
2016,04,09,10,50,12.30
2016,04,09,10,51,12.30
2016,04,09,10,52,12.30
2016,04,09,10,53,12.30
2016,04,09,10,54,12.30
2016,04,09,10,55,12.20
2016,04,09,10,56,12.30
2016,04,09,10,57,12.20
2016,04,09,10,58,12.20
2016,04,09,10,59,12.10
2016,04,09,11,00,12.10
2016,04,09,11,01,12.20
2016,04,09,11,02,12.20
2016,04,09,11,03,12.20
2016,04,09,11,04,12.20
2016,04,09,11,05,12.20
2016,04,09,11,06,12.20
2016,04,09,11,07,12.30
2016,04,09,11,08,12.30
2016,04,09,11,09,12.40
2016,04,09,11,10,12.40
2016,04,09,11,11,12.40
2016,04,09,11,12,12.30
2016,04,09,11,13,12.30
2016,04,09,11,14,12.20
2016,04,09,11,15,12.30
2016,04,09,11,16,12.30
2016,04,09,11,17,12.30
2016,04,09,11,18,12.30
2016,04,09,11,19,12.30
2016,04,09,11,20,12.30
2016,04,09,11,21,12.30
2016,04,09,11,22,12.40
2016,04,09,11,23,12.50
2016,04,09,11,24,12.50
2016,04,09,11,25,12.50
2016,04,09,11,26,12.60
2016,04,09,11,27,12.60
2016,04,09,11,28,12.60
2016,04,09,11,29,12.60
2016,04,09,11,30,12.60
2016,04,09,11,31,12.60
2016,04,09,11,32,12.70
2016,04,09,11,33,12.70
2016,04,09,11,34,12.60
2016,04,09,11,35,12.60
2016,04,09,11,36,12.60
2016,04,09,11,37,12.50
2016,04,09,11,38,12.50
2016,04,09,11,39,12.40
2016,04,09,11,40,12.40
2016,04,09,11,41,12.50
2016,04,09,11,42,12.60
2016,04,09,11,43,12.60
2016,04,09,11,44,12.60
2016,04,09,11,45,12.50
2016,04,09,11,46,12.50
2016,04,09,11,47,12.50
2016,04,09,11,48,12.40
2016,04,09,11,49,12.40
2016,04,09,11,50,12.30
2016,04,09,11,51,12.30
2016,04,09,11,52,12.30
2016,04,09,11,53,12.30
2016,04,09,11,54,12.20
2016,04,09,11,55,12.20
2016,04,09,11,56,12.10
2016,04,09,11,57,12.10
2016,04,09,11,58,12.20
2016,04,09,11,59,12.20
2016,04,09,12,00,12.10
2016,04,09,12,01,12.10
2016,04,09,12,02,12.00
2016,04,09,12,03,12.00
2016,04,09,12,04,11.90
2016,04,09,12,05,11.90
2016,04,09,12,06,11.90
2016,04,09,12,07,12.00
2016,04,09,12,08,12.00
2016,04,09,12,09,12.10
2016,04,09,12,10,12.10
2016,04,09,12,11,12.20
2016,04,09,12,12,12.30
2016,04,09,12,13,12.30
2016,04,09,12,14,12.30
2016,04,09,12,15,12.30
2016,04,09,12,16,12.30
2016,04,09,12,17,12.30
2016,04,09,12,18,12.30
2016,04,09,12,19,12.30
2016,04,09,12,20,12.30
2016,04,09,12,21,12.30
2016,04,09,12,22,12.20
2016,04,09,12,23,12.20
2016,04,09,12,24,12.20
2016,04,09,12,25,12.30
2016,04,09,12,26,12.30
2016,04,09,12,27,12.30
2016,04,09,12,28,12.30
2016,04,09,12,29,12.30
2016,04,09,12,30,12.40
2016,04,09,12,31,12.40
2016,04,09,12,32,12.50
2016,04,09,12,33,12.50
2016,04,09,12,34,12.60
2016,04,09,12,35,12.60
2016,04,09,12,36,12.60
2016,04,09,12,37,12.70
2016,04,09,12,38,12.70
2016,04,09,12,39,12.80
2016,04,09,12,40,12.80
2016,04,09,12,41,12.80
2016,04,09,12,42,12.80
2016,04,09,12,43,12.90
2016,04,09,12,44,12.90
2016,04,09,12,45,12.80
2016,04,09,12,46,12.90
2016,04,09,12,47,13.00
2016,04,09,12,48,13.00
2016,04,09,12,49,13.10
2016,04,09,12,50,13.20
2016,04,09,12,51,13.20
2016,04,09,12,52,13.30
2016,04,09,12,53,13.30
2016,04,09,12,54,13.30
2016,04,09,12,55,13.40
2016,04,09,12,56,13.40
2016,04,09,12,57,13.40
2016,04,09,12,58,13.40
2016,04,09,12,59,13.30
2016,04,09,13,00,13.30
2016,04,09,13,01,13.30
2016,04,09,13,02,13.30
2016,04,09,13,03,13.30
2016,04,09,13,04,13.30
2016,04,09,13,05,13.30
2016,04,09,13,06,13.30
2016,04,09,13,07,13.30
2016,04,09,13,08,13.30
2016,04,09,13,09,13.40
2016,04,09,13,10,13.40
2016,04,09,13,11,13.40
2016,04,09,13,12,13.30
2016,04,09,13,13,13.30
2016,04,09,13,14,13.30
2016,04,09,13,15,13.20
2016,04,09,13,16,13.10
2016,04,09,13,17,13.10
2016,04,09,13,18,13.10
2016,04,09,13,19,13.10
2016,04,09,13,20,13.10
2016,04,09,13,21,13.20
2016,04,09,13,22,13.20
2016,04,09,13,23,13.30
2016,04,09,13,24,13.30
2016,04,09,13,25,13.20
2016,04,09,13,26,13.20
2016,04,09,13,27,13.20
2016,04,09,13,28,13.20
2016,04,09,13,29,13.10
2016,04,09,13,30,13.20
2016,04,09,13,31,13.20
2016,04,09,13,32,13.20
2016,04,09,13,33,13.20
2016,04,09,13,34,13.30
2016,04,09,13,35,13.30
2016,04,09,13,36,13.30
2016,04,09,13,37,13.20
2016,04,09,13,38,13.20
2016,04,09,13,39,13.20
2016,04,09,13,40,13.10
2016,04,09,13,41,13.20
2016,04,09,13,42,13.20
2016,04,09,13,43,13.20
2016,04,09,13,44,13.20
2016,04,09,13,45,13.30
2016,04,09,13,46,13.30
2016,04,09,13,47,13.50
2016,04,09,13,48,13.50
2016,04,09,13,49,13.60
2016,04,09,13,50,13.60
2016,04,09,13,51,13.70
2016,04,09,13,52,13.70
2016,04,09,13,53,13.70
2016,04,09,13,54,13.70
2016,04,09,13,55,13.80
2016,04,09,13,56,13.80
2016,04,09,13,57,13.90
2016,04,09,13,58,13.90
2016,04,09,13,59,13.90
2016,04,09,14,00,13.90
2016,04,09,14,01,13.90
2016,04,09,14,02,13.90
2016,04,09,14,03,14.00
2016,04,09,14,04,14.00
2016,04,09,14,05,14.00
2016,04,09,14,06,14.10
2016,04,09,14,07,14.10
2016,04,09,14,08,14.10
2016,04,09,14,09,14.10
2016,04,09,14,10,14.10
2016,04,09,14,11,14.00
2016,04,09,14,12,14.00
2016,04,09,14,13,13.90
2016,04,09,14,14,13.90
2016,04,09,14,15,13.80
2016,04,09,14,16,13.80
2016,04,09,14,17,13.80
2016,04,09,14,18,13.80
2016,04,09,14,19,13.80
2016,04,09,14,20,13.90
2016,04,09,14,21,13.90
2016,04,09,14,22,14.00
2016,04,09,14,23,14.00
2016,04,09,14,24,14.10
2016,04,09,14,25,14.10
2016,04,09,14,26,14.10
2016,04,09,14,27,14.20
2016,04,09,14,28,14.20
2016,04,09,14,29,14.30
2016,04,09,14,30,14.40
2016,04,09,14,31,14.40
2016,04,09,14,32,14.40
2016,04,09,14,33,14.40
2016,04,09,14,34,14.40
2016,04,09,14,35,14.50
2016,04,09,14,36,14.50
2016,04,09,14,37,14.60
2016,04,09,14,38,14.60
2016,04,09,14,39,14.60
2016,04,09,14,40,14.60
2016,04,09,14,41,14.60
2016,04,09,14,42,14.60
2016,04,09,14,43,14.70
2016,04,09,14,44,14.80
2016,04,09,14,45,14.80
2016,04,09,14,46,14.90
2016,04,09,14,47,14.90
2016,04,09,14,48,14.90
2016,04,09,14,49,14.90
2016,04,09,14,50,14.90
2016,04,09,14,51,14.80
2016,04,09,14,52,14.80
2016,04,09,14,53,14.80
2016,04,09,14,54,14.80
2016,04,09,14,55,14.90
2016,04,09,14,56,15.00
2016,04,09,14,57,15.00
2016,04,09,14,58,15.00
2016,04,09,14,59,15.10
2016,04,09,15,00,15.10
2016,04,09,15,01,15.10
2016,04,09,15,02,15.10
2016,04,09,15,03,15.10
2016,04,09,15,04,15.10
2016,04,09,15,05,15.10
2016,04,09,15,06,15.10
2016,04,09,15,07,15.10
2016,04,09,15,08,15.00
2016,04,09,15,09,15.00
2016,04,09,15,10,15.00
2016,04,09,15,11,14.90
2016,04,09,15,12,14.90
2016,04,09,15,13,14.90
2016,04,09,15,14,14.90
2016,04,09,15,15,15.00
2016,04,09,15,16,15.00
2016,04,09,15,17,15.10
2016,04,09,15,18,15.10
2016,04,09,15,19,15.20
2016,04,09,15,20,15.20
2016,04,09,15,21,15.20
2016,04,09,15,22,15.20
2016,04,09,15,23,15.10
2016,04,09,15,24,15.20
2016,04,09,15,25,15.10
2016,04,09,15,26,15.20
2016,04,09,15,27,15.20
2016,04,09,15,28,15.30
2016,04,09,15,29,15.30
2016,04,09,15,30,15.40
2016,04,09,15,31,15.50
2016,04,09,15,32,15.50
2016,04,09,15,33,15.50
2016,04,09,15,34,15.60
2016,04,09,15,35,15.60
2016,04,09,15,36,15.60
2016,04,09,15,37,15.60
2016,04,09,15,38,15.60
2016,04,09,15,39,15.60
2016,04,09,15,40,15.60
2016,04,09,15,41,15.60
2016,04,09,15,42,15.50
2016,04,09,15,43,15.40
2016,04,09,15,44,15.30
2016,04,09,15,45,15.30
2016,04,09,15,46,15.30
2016,04,09,15,47,15.30
2016,04,09,15,48,15.20
2016,04,09,15,49,15.20
2016,04,09,15,50,15.30
2016,04,09,15,51,15.30
2016,04,09,15,52,15.30
2016,04,09,15,53,15.30
2016,04,09,15,54,15.30
2016,04,09,15,55,15.30
2016,04,09,15,56,15.40
2016,04,09,15,57,15.50
2016,04,09,15,58,15.50
2016,04,09,15,59,15.60
2016,04,09,16,00,15.70
2016,04,09,16,01,15.80
2016,04,09,16,02,15.80
2016,04,09,16,03,15.90
2016,04,09,16,04,16.10
2016,04,09,16,05,16.20
2016,04,09,16,06,16.30
2016,04,09,16,07,16.40
2016,04,09,16,08,16.50
2016,04,09,16,09,16.60
2016,04,09,16,10,16.60
2016,04,09,16,11,16.60
2016,04,09,16,12,16.50
2016,04,09,16,13,16.40
2016,04,09,16,14,16.40
2016,04,09,16,15,16.50
2016,04,09,16,16,16.70
2016,04,09,16,17,16.80
2016,04,09,16,18,16.90
2016,04,09,16,19,17.00
2016,04,09,16,20,17.10
2016,04,09,16,21,17.20
2016,04,09,16,22,17.20
2016,04,09,16,23,17.30
2016,04,09,16,24,17.30
2016,04,09,16,25,17.30
2016,04,09,16,26,17.40
2016,04,09,16,27,17.40
2016,04,09,16,28,17.40
2016,04,09,16,29,17.30
2016,04,09,16,30,17.30
2016,04,09,16,31,17.20
2016,04,09,16,32,17.30
2016,04,09,16,33,17.30
2016,04,09,16,34,17.30
2016,04,09,16,35,17.30
2016,04,09,16,36,17.30
2016,04,09,16,37,17.30
2016,04,09,16,38,17.40
2016,04,09,16,39,17.50
2016,04,09,16,40,17.50
2016,04,09,16,41,17.50
2016,04,09,16,42,17.50
2016,04,09,16,43,17.40
2016,04,09,16,44,17.30
2016,04,09,16,45,17.20
2016,04,09,16,46,17.10
2016,04,09,16,47,17.00
2016,04,09,16,48,16.90
2016,04,09,16,49,16.90
2016,04,09,16,50,16.80
2016,04,09,16,51,16.90
2016,04,09,16,52,16.90
2016,04,09,16,53,17.10
2016,04,09,16,54,17.00
2016,04,09,16,55,17.00
2016,04,09,16,56,17.10
2016,04,09,16,57,17.20
2016,04,09,16,58,17.20
2016,04,09,16,59,17.20
2016,04,09,17,00,17.20
2016,04,09,17,01,17.30
2016,04,09,17,02,17.30
2016,04,09,17,03,17.30
2016,04,09,17,04,17.20
2016,04,09,17,05,17.20
2016,04,09,17,06,17.10
2016,04,09,17,07,17.00
2016,04,09,17,08,17.00
2016,04,09,17,09,17.00
2016,04,09,17,10,17.00
2016,04,09,17,11,17.00
2016,04,09,17,12,17.00
2016,04,09,17,13,17.00
2016,04,09,17,14,17.00
2016,04,09,17,15,17.10
2016,04,09,17,16,17.20
2016,04,09,17,17,17.30
2016,04,09,17,18,17.30
2016,04,09,17,19,17.40
2016,04,09,17,20,17.40
2016,04,09,17,21,17.30
2016,04,09,17,22,17.30
2016,04,09,17,23,17.30
2016,04,09,17,24,17.30
2016,04,09,17,25,17.20
2016,04,09,17,26,17.20
2016,04,09,17,27,17.20
2016,04,09,17,28,17.20
2016,04,09,17,29,17.30
2016,04,09,17,30,17.40
2016,04,09,17,31,17.50
2016,04,09,17,32,17.60
2016,04,09,17,33,17.50
2016,04,09,17,34,17.50
2016,04,09,17,35,17.50
2016,04,09,17,36,17.40
2016,04,09,17,37,17.50
2016,04,09,17,38,17.50
2016,04,09,17,39,17.40
2016,04,09,17,40,17.40
2016,04,09,17,41,17.30
2016,04,09,17,42,17.30
2016,04,09,17,43,17.30